When you browse on this site, cookies collect data to enhance your experience and personalize the content and advertising you see.
Visit our Privacy Policy to learn more. By continuing to use the site, you agree to this use of cookies and data.
  • In Spain
  • List of Countries
  • For 7 days
  • Water Temperature
  • Weather Map
  • Weather Widgets
  • user-avatar
    Login

    Hourly Weather Guarda

    Today, 1 June, Monday

    Time Temperature Precipitation Wind Pressure Humidity
    00:00 +13°C° 0 mm 1 mps 685 mmHg 90%
    01:00 +13°C° 0 mm 1 mps 685 mmHg 89%
    02:00 +13°C° 0 mm 1 mps 685 mmHg 89%
    03:00 +13°C° 0 mm 1 mps 685 mmHg 88%
    04:00 +14°C° 0 mm 1 mps 685 mmHg 88%
    05:00 +14°C° 0 mm 1 mps 685 mmHg 88%
    06:00 +15°C° 0 mm 2 mps 686 mmHg 89%
    07:00 +16°C° 0 mm 2 mps 686 mmHg 82%
    08:00 +18°C° 0 mm 2 mps 687 mmHg 76%
    09:00 +19°C° 0 mm 2 mps 688 mmHg 70%
    10:00 +20°C° 0 mm 3 mps 688 mmHg 65%
    11:00 +21°C° 0 mm 3 mps 688 mmHg 61%
    12:00 +22°C° 0 mm 4 mps 688 mmHg 56%
    13:00 +22°C° 0 mm 3 mps 688 mmHg 54%
    14:00 +24°C° 0 mm 3 mps 688 mmHg 52%
    15:00 +24°C° 0 mm 3 mps 688 mmHg 50%
    16:00 +24°C° 0 mm 3 mps 688 mmHg 54%
    17:00 +23°C° 0 mm 2 mps 687 mmHg 57%
    18:00 +23°C° 0 mm 2 mps 687 mmHg 60%
    19:00 +21°C° 0 mm 1 mps 687 mmHg 67%
    20:00 +19°C° 0 mm 1 mps 687 mmHg 73%
    21:00 +15°C° 0 mm 0 mps 687 mmHg 80%
    22:00 +15°C° 0 mm 0 mps 687 mmHg 80%
    23:00 +15°C° 0 mm 0 mps 687 mmHg 81%

    Tomorrow, 2 June, Tuesday

    Time Temperature Precipitation Wind Pressure Humidity
    00:00 +14°C° 0 mm 0 mps 686 mmHg 82%
    01:00 +14°C° 0 mm 0 mps 686 mmHg 83%
    02:00 +15°C° 0 mm 1 mps 686 mmHg 84%
    03:00 +14°C° 0 mm 1 mps 686 mmHg 85%
    04:00 +15°C° 0 mm 1 mps 686 mmHg 85%
    05:00 +15°C° 0 mm 1 mps 686 mmHg 85%
    06:00 +15°C° 0 mm 1 mps 686 mmHg 85%
    07:00 +17°C° 0 mm 2 mps 687 mmHg 76%
    08:00 +19°C° 0 mm 2 mps 688 mmHg 66%
    09:00 +20°C° 0 mm 3 mps 688 mmHg 57%
    10:00 +21°C° 0 mm 3 mps 688 mmHg 53%
    11:00 +22°C° 0 mm 3 mps 688 mmHg 48%
    12:00 +24°C° 0 mm 3 mps 688 mmHg 44%
    13:00 +25°C° 0 mm 3 mps 688 mmHg 42%
    14:00 +25°C° 0 mm 3 mps 688 mmHg 40%
    15:00 +26°C° 0 mm 2 mps 688 mmHg 37%
    16:00 +25°C° 0 mm 3 mps 687 mmHg 43%
    17:00 +24°C° 0 mm 3 mps 687 mmHg 50%
    18:00 +22°C° 0 mm 3 mps 687 mmHg 56%
    19:00 +20°C° 0 mm 3 mps 687 mmHg 67%
    20:00 +18°C° 0 mm 2 mps 686 mmHg 79%
    21:00 +16°C° 0 mm 2 mps 686 mmHg 91%
    22:00 +15°C° 0 mm 1 mps 686 mmHg 92%
    23:00 +15°C° 0 mm 1 mps 686 mmHg 94%

    Day after tomorrow, 3 June, Wednesday

    Time Temperature Precipitation Wind Pressure Humidity
    00:00 +14°C° 0 mm 1 mps 686 mmHg 96%
    01:00 +14°C° 0 mm 1 mps 685 mmHg 96%
    02:00 +14°C° 0 mm 1 mps 685 mmHg 95%
    03:00 +13°C° 0 mm 1 mps 685 mmHg 95%
    04:00 +14°C° 0 mm 1 mps 685 mmHg 95%
    05:00 +14°C° 0 mm 1 mps 685 mmHg 94%
    06:00 +14°C° 0 mm 1 mps 685 mmHg 93%
    07:00 +15°C° 0 mm 1 mps 685 mmHg 88%
    08:00 +16°C° 0 mm 1 mps 685 mmHg 83%
    09:00 +19°C° 0 mm 1 mps 686 mmHg 77%
    10:00 +18°C° 0 mm 2 mps 686 mmHg 73%
    11:00 +19°C° 0 mm 2 mps 686 mmHg 69%
    12:00 +20°C° 0 mm 3 mps 685 mmHg 65%
    13:00 +21°C° 0 mm 4 mps 685 mmHg 62%
    14:00 +21°C° 0 mm 4 mps 685 mmHg 60%
    15:00 +22°C° 0 mm 4 mps 685 mmHg 57%
    16:00 +21°C° 0 mm 4 mps 684 mmHg 60%
    17:00 +20°C° 0 mm 4 mps 684 mmHg 63%
    18:00 +19°C° 0 mm 4 mps 684 mmHg 67%
    19:00 +18°C° 0 mm 4 mps 683 mmHg 74%
    20:00 +16°C° 0 mm 3 mps 683 mmHg 81%
    21:00 +13°C° 0 mm 3 mps 683 mmHg 88%
    22:00 +12°C° 0 mm 3 mps 683 mmHg 91%
    23:00 +13°C° 0 mm 2 mps 683 mmHg 93%

    4 June, Thursday

    Time Temperature Precipitation Wind Pressure Humidity
    00:00 +12°C° 0 mm 2 mps 683 mmHg 95%
    01:00 +12°C° 0 mm 2 mps 682 mmHg 95%
    02:00 +12°C° 0 mm 2 mps 682 mmHg 95%
    03:00 +10°C° 0 mm 2 mps 682 mmHg 95%
    04:00 +12°C° 0 mm 2 mps 682 mmHg 94%
    05:00 +12°C° 0 mm 2 mps 682 mmHg 93%
    06:00 +12°C° 0 mm 2 mps 682 mmHg 92%
    07:00 +14°C° 0 mm 2 mps 682 mmHg 85%
    08:00 +15°C° 0 mm 2 mps 683 mmHg 78%
    09:00 +17°C° 0 mm 2 mps 684 mmHg 70%
    10:00 +18°C° 0.1 mm 2 mps 684 mmHg 66%
    11:00 +19°C° 0.1 mm 3 mps 684 mmHg 61%
    12:00 +20°C° 0.1 mm 3 mps 684 mmHg 57%
    13:00 +21°C° 0 mm 3 mps 684 mmHg 54%
    14:00 +21°C° 0 mm 3 mps 684 mmHg 50%
    15:00 +22°C° 0 mm 4 mps 684 mmHg 47%
    16:00 +21°C° 0 mm 3 mps 684 mmHg 48%
    17:00 +21°C° 0 mm 3 mps 684 mmHg 49%
    18:00 +20°C° 0 mm 3 mps 684 mmHg 50%
    19:00 +18°C° 0 mm 3 mps 684 mmHg 58%
    20:00 +16°C° 0 mm 2 mps 684 mmHg 66%
    21:00 +13°C° 0 mm 2 mps 684 mmHg 74%
    22:00 +13°C° 0 mm 1 mps 684 mmHg 76%
    23:00 +12°C° 0 mm 1 mps 684 mmHg 77%

    5 June, Friday

    Time Temperature Precipitation Wind Pressure Humidity
    00:00 +12°C° 0 mm 1 mps 684 mmHg 79%
    01:00 +11°C° 0 mm 1 mps 684 mmHg 80%
    02:00 +10°C° 0 mm 0 mps 684 mmHg 81%
    03:00 +10°C° 0 mm 0 mps 684 mmHg 81%
    04:00 +10°C° 0 mm 0 mps 684 mmHg 81%
    05:00 +11°C° 0 mm 1 mps 684 mmHg 80%
    06:00 +12°C° 0 mm 1 mps 685 mmHg 79%
    07:00 +14°C° 0 mm 1 mps 685 mmHg 71%
    08:00 +18°C° 0 mm 1 mps 686 mmHg 62%
    09:00 +20°C° 0 mm 1 mps 686 mmHg 54%
    10:00 +21°C° 0 mm 1 mps 687 mmHg 48%
    11:00 +23°C° 0 mm 1 mps 687 mmHg 42%
    12:00 +24°C° 0 mm 2 mps 687 mmHg 36%
    13:00 +25°C° 0 mm 2 mps 687 mmHg 35%
    14:00 +25°C° 0 mm 2 mps 686 mmHg 33%
    15:00 +25°C° 0 mm 2 mps 686 mmHg 32%
    16:00 +24°C° 0 mm 2 mps 686 mmHg 36%
    17:00 +24°C° 0 mm 3 mps 686 mmHg 40%
    18:00 +22°C° 0 mm 3 mps 685 mmHg 44%
    19:00 +19°C° 0 mm 2 mps 685 mmHg 55%
    20:00 +17°C° 0 mm 2 mps 685 mmHg 65%
    21:00 +14°C° 0 mm 2 mps 685 mmHg 76%
    22:00 +14°C° 0 mm 1 mps 685 mmHg 77%
    23:00 +13°C° 0 mm 1 mps 685 mmHg 78%

    6 June, Saturday

    Time Temperature Precipitation Wind Pressure Humidity
    00:00 +13°C° 0 mm 1 mps 685 mmHg 80%
    01:00 +11°C° 0 mm 0 mps 685 mmHg 79%
    02:00 +11°C° 0 mm 0 mps 684 mmHg 79%
    03:00 +11°C° 0 mm 0 mps 684 mmHg 78%
    04:00 +11°C° 0 mm 0 mps 684 mmHg 78%
    05:00 +12°C° 0 mm 0 mps 684 mmHg 77%
    06:00 +12°C° 0 mm 0 mps 685 mmHg 77%
    07:00 +15°C° 0 mm 1 mps 685 mmHg 69%
    08:00 +17°C° 0 mm 2 mps 685 mmHg 61%
    09:00 +19°C° 0 mm 2 mps 686 mmHg 53%
    10:00 +20°C° 0 mm 3 mps 686 mmHg 51%
    11:00 +20°C° 0 mm 3 mps 686 mmHg 49%
    12:00 +21°C° 0 mm 4 mps 686 mmHg 47%
    13:00 +21°C° 0.2 mm 4 mps 686 mmHg 49%
    14:00 +20°C° 0.2 mm 4 mps 686 mmHg 52%
    15:00 +20°C° 0.2 mm 4 mps 685 mmHg 54%
    16:00 +18°C° 0.7 mm 3 mps 685 mmHg 65%
    17:00 +16°C° 0.7 mm 3 mps 685 mmHg 76%
    18:00 +13°C° 0.7 mm 3 mps 684 mmHg 87%
    19:00 +13°C° 0.1 mm 3 mps 684 mmHg 88%
    20:00 +13°C° 0.1 mm 2 mps 685 mmHg 90%
    21:00 +12°C° 0.1 mm 2 mps 685 mmHg 91%
    22:00 +12°C° 0 mm 2 mps 685 mmHg 92%
    23:00 +12°C° 0 mm 2 mps 685 mmHg 92%
    Show more